Regional Weather Roundup
Issued by NWS

Home | Current Version | Previous Version | Text Only | Print | Product List | Glossary Off
Versions: 1 2 3 4 5 6 7 8 9 10 11 12 13 14 15 16 17 18 19 20 21 22 23 24 25 26 27 28 29 30 31 32 33 34 35 36 37 38 39 40 41 42 43 44 45 46 47 48 49 50

000
ASUS43 KOAX 242102
RWRNE

WEATHER ROUNDUP FOR NEBRASKA
NATIONAL WEATHER SERVICE OMAHA NE
400 PM CDT SUN MAY 24 2015

NOTES: SATELLITE DATA IS BEING USED TO AUGMENT CLOUD COVER ABOVE
       12000 FEET.
       "FAIR" INDICATES FEW OR NO CLOUDS BELOW 12,000 FEET WITH NO
       SIGNIFICANT WEATHER AND/OR OBSTRUCTIONS TO VISIBILITY.

  * THESE STATIONS DO NOT REPORT WEATHER SUCH AS RAIN...SNOW OR FOG.

NEZ001>004-019>022-054>056-242200-
NEBRASKA PANHANDLE

CITY           SKY/WX    TMP DP  RH WIND       PRES   REMARKS
SCOTTSBLUFF    MOSUNNY   68  49  50 SE8       29.81F
ALLIANCE       MOSUNNY   68  48  48 S8        29.80F
CHADRON        PTSUNNY   65  53  65 N9        29.82F
SIDNEY         MOSUNNY   64  46  52 S5        29.83F
$$

NEZ057>060-069>072-079>082-242200-
SOUTHWEST NEBRASKA

CITY           SKY/WX    TMP DP  RH WIND       PRES   REMARKS
NORTH PLATTE   MOSUNNY   70  56  61 SE8       29.81F
IMPERIAL       MOSUNNY   71  51  49 VRB5      29.79F
LEXINGTON      CLOUDY    63  59  88 CALM      29.83F
MCCOOK         CLOUDY    69  57  65 NE10G22   29.79F
$$

NEZ005>010-023>029-035>040-094-242200-
NORTH CENTRAL NEBRASKA

CITY           SKY/WX    TMP DP  RH WIND       PRES   REMARKS
VALENTINE      PTSUNNY   65  58  78 E9        29.83F
AINSWORTH      CLOUDY    64  60  86 E9        29.83F
BROKEN BOW     CLOUDY    66  58  75 VRB3      29.82F
ORD            CLOUDY    65  57  75 CALM      29.81F
$$

NEZ041-046>049-061>064-073>077-083>087-242200-
SOUTH CENTRAL NEBRASKA

CITY           SKY/WX    TMP DP  RH WIND       PRES   REMARKS
GRAND ISLAND   CLOUDY    65  58  78 SW9       29.83S
HASTINGS       CLOUDY    65  58  78 S5        29.83S
KEARNEY *      CLOUDY    63  57  82 S7        29.83F
$$

NEZ011>018-030>034-042>045-242200-
NORTHEAST NEBRASKA

CITY           SKY/WX    TMP DP  RH WIND       PRES   REMARKS
NORFOLK        CLOUDY    65  59  81 W3        29.81F
COLUMBUS *     CLOUDY    66  57  72 NW5       29.84F
FREMONT        CLOUDY    68  60  76 W3        29.82S
TEKAMAH        CLOUDY    68  61  78 SW3       29.80S
$$

NEZ050>053-065>068-078-088>093-242200-
SOUTHEAST NEBRASKA

CITY           SKY/WX    TMP DP  RH WIND       PRES   REMARKS
LINCOLN        CLOUDY    69  61  75 S5        29.81F
OMAHA EPPLEY   CLOUDY    68  62  81 SW7       29.81S
FALLS CITY     CLOUDY    70  62  76 S12       29.82F
PLATTSMOUTH    CLOUDY    69  62  78 CALM      29.81F
$$

NEZ044-045-051>053-067-242200-
OMAHA AREA

CITY           SKY/WX    TMP DP  RH WIND       PRES   REMARKS
OMAHA EPPLEY   CLOUDY    68  62  81 SW7       29.81S
FREMONT        CLOUDY    68  60  76 W3        29.82S
OFFUTT AFB     CLOUDY    69  63  79 SW6       29.79F
PLATTSMOUTH    CLOUDY    69  62  78 CALM      29.81F
$$



USA.gov is the U.S. government's official web portal to all federal, state and local government web resources and services.